Regional Weather Roundup
Issued by NWS

Home | Current Version | Previous Version | Text Only | Print | Product List | Glossary Off
Versions: 1 2 3 4 5 6 7 8 9 10 11 12 13 14 15 16 17 18 19 20 21 22 23 24 25 26 27 28 29 30 31 32 33 34 35 36 37 38 39 40 41 42 43 44 45 46 47 48 49 50

000
ASUS43 KIND 310809
RWRIN

WEATHER ROUNDUP FOR INDIANA
NATIONAL WEATHER SERVICE INDIANAPOLIS IN
400 AM EDT TUE MAY 31 2016

NOTE: "FAIR" INDICATES FEW OR NO CLOUDS BELOW 12,000 FEET WITH NO
SIGNIFICANT WEATHER AND/OR OBSTRUCTIONS TO VISIBILITY.

* - STATION DOES NOT REPORT WEATHER SUCH AS PRECIPITATION OR FOG.

+ - STATION NOT QUALITY CONTROLLED BY THE NATIONAL WEATHER SERVICE.
    USE DATA WITH CAUTION...ESPECIALLY DEWPOINT AND RELATIVE
    HUMIDITY OBSERVATIONS.

INZ001>003-010>013-019-020-310900-
NORTHWEST INDIANA

CITY           SKY/WX    TMP DP  RH WIND       PRES   REMARKS
GARY /AIRPORT/ MOCLDY    64  64 100 CALM      30.00F
KNOX *+        CLEAR     61  54  77 CALM      30.00S
LA PORTE +     PTCLDY    67  61  80 CALM      30.01S
MICHIGAN CITY+ PTCLDY    59  59 100 S3        30.01S
MONTICELLO +   PTCLDY    65  53  66 CALM      29.97F
RENSSELAER +   CLEAR     68  59  73 NE8       29.98S
VALPARAISO     PTCLDY    64  58  80 NE3       30.00F

$$

LMZ046-743>745-310900-
SOUTHERN LAKE MICHIGAN

STATION/POSITION TIME  TEMP    WIND        PRES    WAVE
                       AIR SEA DIR/SP/G            HT
                 (UTC) (F)     (DEG/KT/KT) (MB)    (FT)
BURNS HARBOR     0700   64      70/  4/  8 1016.3R
MICHIGAN CITY    0700   67      50/  7/  8   N/A
5NW MICH CITY    0800   63 62  180/  2/  4   N/A     0

$$

INZ004-005-014>016-021>024-310900-
NORTH CENTRAL INDIANA

CITY           SKY/WX    TMP DP  RH WIND       PRES   REMARKS
GOSHEN         CLEAR     57  52  83 CALM      30.00F
LOGANSPORT +   PTCLDY    70  54  56 NE5       29.98F
ROCHESTER +    CLEAR     64  59  82 CALM      30.00S
SOUTH BEND     PTCLDY    62  56  80 CALM      30.01S
WARSAW +       CLEAR     59  55  88 CALM      30.00S

$$

INZ006>009-017-018-025>027-310900-
NORTHEAST INDIANA

CITY           SKY/WX    TMP DP  RH WIND       PRES   REMARKS
ANGOLA *+        N/A     57  57 100 CALM      30.01S
AUBURN +       CLEAR     61  54  77 CALM      30.01S
FORT WAYNE     PTCLDY    66  54  65 N3        30.00S
HUNTINGTON +   CLEAR    N/A N/A N/A CALM      29.99S

$$

INZ028-029-035-036-043>045-051>053-310900-
WEST CENTRAL INDIANA

CITY           SKY/WX    TMP DP  RH WIND       PRES   REMARKS
CRAWFORDSVL +  PTCLDY    61  61 100 CALM      29.98S
GREENCASTLE +  PTCLDY    63  61  94 CALM      29.99S
LAFAYETTE      MOCLDY    66  57  72 N3        29.96F
TERRE HAUTE    CLOUDY    66  62  87 CALM      29.98S

$$

INZ030>032-037>040-046>048-054>057-064-065-310900-
CENTRAL INDIANA

CITY           SKY/WX    TMP DP  RH WIND       PRES   REMARKS
CP ATTERBURY + PTCLDY    61  59  94 CALM      29.99R
FISHERS *+     PTCLDY    61  61 100 CALM      29.98S
FRANKFORT +      N/A     64  49  59 CALM      30.00S
GREENWOOD *+   PTCLDY    64  59  82 CALM      29.99
INDIANAPOLIS   MOCLDY    67  58  72 CALM      29.96S
-EAGLE CREEK   PTCLDY    66  59  78 NE7       29.97S
KOKOMO *+      CLEAR     64  52  63 E6        29.98S
MARION +       CLEAR     64  55  73 NE5       29.99S
SHELBYVILLE    MOCLDY    66  58  75 N5        29.98R
ZIONSVILLE +   MOCLDY    63  57  81 CALM      29.99S

$$

INZ033-034-041-042-049-050-058-059-310900-
EAST CENTRAL INDIANA

CITY           SKY/WX    TMP DP  RH WIND       PRES   REMARKS
MUNCIE         CLEAR     65  57  75 CALM      29.99S

$$

INZ060-061-067>069-081>083-085>088-310900-
SOUTHWEST INDIANA

CITY           SKY/WX    TMP DP  RH WIND       PRES   REMARKS
EVANSVILLE     PTCLDY    65  61  87 CALM      29.97S
HUNTINGBURG *+ PTCLDY    64  61  88 CALM      29.97S
WASHINGTON +   CLOUDY    64  64 100 CALM      29.97S

$$

INZ062-063-066-070>080-084-089>092-310900-
SOUTH CENTRAL AND SOUTHEAST INDIANA

CITY           SKY/WX    TMP DP  RH WIND       PRES   REMARKS
BEDFORD +      CLOUDY    63  63 100 CALM      29.97S
BLOOMINGTON    PTCLDY    63  60  90 CALM      29.98S
MADISON *+     CLOUDY    63  59  88 CALM      30.00S
NORTH VERNON + PTCLDY   N/A N/A N/A CALM      29.98S HAZE
SEYMOUR +      MOCLDY    64  63  94 CALM      29.97S

$$





USA.gov is the U.S. government's official web portal to all federal, state and local government web resources and services.